Location: *
(8.5150°S, 41.0050°W)
Time: 23:42:38
(UTC+00:00)

Daily predictions for brighter satellites

Satellite Brightness Start Highest point End
(mag) Time Altitude Azimuth Time Altitude Azimuth Time Altitude Azimuth
Centaur AC-64 4.2 20:36:01 10° WNW 21:01:38 86° NNE 21:05:50 10° ESE
Cosmos 2322 Rocket 3.3 20:57:46 10° SSE 21:02:06 22° ESE 21:06:26 10° ENE
YAOGAN 1 3.9 20:59:04 10° SE 21:02:20 21° E 21:05:34 10° NNE
Iridium 82 4.5 21:00:43 10° N 21:04:14 84° E 21:07:48 10° S
Cosmos 1726 4.0 21:00:50 10° NNW 21:04:15 35° W 21:07:43 10° SSW
ARIANE 5 R/B 3.7 21:05:01 10° NW 21:06:32 16° N 21:07:54 10° NE
SL-16 R/B 2.9 21:03:53 10° SSE 21:08:50 31° ESE 21:13:47 10° NE
Cosmos 1802 Rocket 4.1 21:02:47 10° S 21:09:09 64° E 21:15:30 10° NNE
Cosmos 1328 3.9 21:05:25 10° S 21:09:22 53° E 21:13:18 10° NNE
Cosmos 2061 Rocket 4.1 21:04:05 10° S 21:10:18 57° E 21:16:23 10° NNE
Maqsat-H 1.6 21:11:57 10° W 21:15:30 83° N 21:20:41 10° E
Cosmos 2227 Rocket 3.9 21:18:21 10° NE 21:20:55 13° ENE 21:22:28 12° E
Cosmos 1271 Rocket 3.9 21:20:59 10° SSE 21:23:58 22° E 21:26:58 10° NE
CZ-4 R/B 4.4 21:20:41 10° SSE 21:24:46 64° E 21:28:50 10° N
SL-24 DEB 4.2 21:26:41 10° N 21:31:16 88° E 21:35:54 10° S
Abrixas rocket 3.7 21:29:45 10° WNW 21:32:28 29° SW 21:35:03 11° SSE
Cosmos 1864 Rocket 4.4 21:26:26 10° S 21:32:30 63° E 21:38:32 10° NNE
Envisat 2.9 21:28:45 10° SSE 21:33:51 75° ENE 21:38:54 10° N
SL-08 R/B 4.4 21:29:36 10° S 21:35:49 76° E 21:41:54 10° N
Cosmos 2219 3.5 21:30:57 10° N 21:36:21 45° ENE 21:40:41 15° SE
Cosmos 2056 Rocket 4.0 21:34:34 10° NNW 21:39:55 65° WSW 21:45:16 10° S
ARIANE 5 R/B 4.0 21:37:17 10° WNW 21:39:56 16° NNW 21:41:32 10° NNE
GPS 2-17 Rocket1 3.8 21:36:29 10° SW 21:40:51 35° SSE 21:42:46 25° ESE
Cosmos 1703 3.8 21:37:14 10° SSW 21:41:11 62° W 21:45:05 10° N
Cosmos 2297 Rocket 3.2 21:38:30 10° NNE 21:43:01 25° ENE 21:44:22 23° E
Cosmos 1939 Rocket 4.2 21:45:26 22° ENE 21:45:26 22° ENE 21:48:14 10° NNE
Cosmos-2242 2.9 21:41:12 10° N 21:45:29 79° E 21:49:50 10° S
NOSS 3-1 (C) 3.7 21:41:43 10° S 21:46:29 30° ESE 21:49:29 18° ENE
ARIANE R/B 3.3 21:43:04 10° WNW 21:46:41 60° N 21:48:59 24° E
CSL-04 Rocket 3.7 21:44:16 10° S 21:49:45 84° WSW 21:55:07 10° NNW
ARIANE 5 R/B 4.4 21:41:53 10° WNW 21:53:37 31° NNW 21:56:22 14° NE
ARIANE 5 R/B 3.9 21:52:38 10° NNW 21:53:52 14° N 21:54:46 13° NNE
Hubble Space Telescope 2.8 22:04:06 10° WSW 22:06:55 17° SSW 22:07:43 17° S
Cosmos 1900 4.4 22:02:33 10° SSW 22:07:36 80° WNW 22:12:42 10° NNE
Delta 128 3.4 22:04:44 10° WNW 22:09:19 86° SSW 22:10:03 62° SE
Ariane H10+ 4.4 22:06:07 10° WNW 22:09:22 34° N 22:15:32 16° ENE
YAOGAN 6 3.8 22:06:26 13° S 22:09:26 41° WSW 22:12:54 10° NNW
Cosmos 2360 Rocket 2.2 22:09:24 10° S 22:14:55 52° ESE 22:20:23 10° NNE
Ariane Rocket 2.9 22:12:54 32° SSE 22:15:22 88° ENE 22:20:28 10° NNW
Delta 198 3.5 22:10:58 10° WSW 22:15:33 66° NNW 22:16:08 56° NNE
OAO 3 Copernicus 4.1 22:12:20 10° NW 22:17:21 83° NE 22:17:58 68° ESE
ASTRO E2 3.9 22:15:54 10° W 22:19:28 33° SSW 22:19:28 33° SSW
CZ-4 R/B 4.1 22:16:46 10° SSW 22:19:40 19° WSW 22:22:36 10° WNW
USA 229 DEB 3.6 22:17:11 10° SSW 22:23:46 81° WNW 22:30:15 10° NNE
USA 229 3.6 22:17:17 10° SSW 22:23:53 82° WNW 22:30:22 10° NNE
IRS-1A Rocket 4.1 22:23:20 50° SSE 22:24:51 81° ENE 22:30:29 10° N
Atlas Centaur 2 4.1 22:19:32 10° SSW 22:24:06 22° SSE 22:24:06 22° SSE
Cosmos 1452 Rocket 4.4 22:35:19 10° NNW 22:40:19 46° WSW 22:41:52 36° SSW
Maqsat-B 3.4 22:37:17 10° W 22:41:13 84° N 22:41:55 70° ENE
Tsikada Rocket 4.5 22:35:46 10° N 22:40:09 45° NNE 22:40:09 45° NNE
Cosmos 2322 Rocket 4.2 22:41:14 10° SW 22:45:53 26° WNW 22:50:33 10° NNW
FUSE 4.5 22:43:57 10° WNW 22:48:07 56° WNW 22:48:07 56° WNW
ADEOS Rocket 4.1 22:55:46 10° N 22:58:27 30° N 22:58:27 30° N
Cosmos 2227 Rocket 3.2 22:59:16 10° NW 23:04:21 42° W 23:04:21 42° W
Cosmos 2297 Rocket 4.2 23:22:26 10° WNW 23:26:15 23° W 23:26:15 23° W
Centaur AC-72 4.2 23:38:03 10° W 23:43:29 34° WSW 23:43:29 34° WSW
